This is the latest recevied weather packets stored in our database for station/object KD9JB-1. If no packets are shown the sender has not sent any weather packets the latest 10 day(s).
| Time | Temp. | Humidity | Pressure | Rain* | Wind** | Luminosity | Snow |
|---|---|---|---|---|---|---|---|
| 1777404112 | 22.78° C | 64% | 1015.1 hPa | 0 mm | - | - | - |
| 1777403812 | 22.22° C | 63% | 1015.1 hPa | 0 mm | - | - | - |
| 1777403512 | 22.22° C | 62% | 1015 hPa | 0 mm | - | - | - |
| 1777403212 | 22.78° C | 61% | 1015.2 hPa | 0 mm | - | - | - |
| 1777402912 | 22.78° C | 63% | 1015.2 hPa | 0 mm | - | - | - |
| 1777402612 | 22.78° C | 65% | 1015.2 hPa | 0 mm | - | - | - |
| 1777402312 | 22.22° C | 63% | 1015.4 hPa | 0 mm | - | - | - |
| 1777402012 | 21.67° C | 64% | 1015.4 hPa | 0 mm | - | - | - |
| 1777401712 | 22.22° C | 61% | 1015.4 hPa | 0 mm | - | - | - |
| 1777401412 | 22.78° C | 61% | 1015.6 hPa | 0 mm | - | - | - |
| 1777401112 | 22.22° C | 66% | 1015.4 hPa | 0 mm | - | - | - |
| 1777400812 | 21.67° C | 61% | 1015.5 hPa | 0 mm | - | - | - |
| 1777400512 | 22.22° C | 62% | 1015.4 hPa | 0 mm | - | - | - |
| 1777400212 | 22.78° C | 63% | 1015.4 hPa | 0 mm | - | - | - |
| 1777399912 | 22.22° C | 65% | 1015.5 hPa | 0 mm | - | - | - |
| 1777399612 | 22.22° C | 64% | 1015.4 hPa | 0 mm | - | - | - |
| 1777399312 | 21.67° C | 65% | 1015.3 hPa | 0 mm | - | - | - |
| 1777399012 | 21.67° C | 63% | 1015.5 hPa | 0 mm | - | - | - |
| 1777398712 | 22.22° C | 63% | 1015.5 hPa | 0 mm | - | - | - |
| 1777398412 | 22.22° C | 62% | 1015.5 hPa | 0 mm | - | - | - |
| 1777398112 | 22.22° C | 64% | 1015.5 hPa | 0 mm | - | - | - |
| 1777397812 | 22.22° C | 65% | 1015.6 hPa | 0 mm | - | - | - |
| 1777397512 | 22.22° C | 62% | 1015.6 hPa | 0 mm | - | - | - |
| 1777397212 | 22.22° C | 65% | 1015.7 hPa | 0 mm | - | - | - |
| 1777396912 | 21.67° C | 64% | 1015.8 hPa | 0 mm | - | - | - |
* Rain latest hour (hover to see other rain measurements)
** Current wind speed in m/s (hover to see current wind gust speed)